Regional Weather Roundup
Issued by NWS

Home | Current Version | Previous Version | Text Only | Print | Product List | Glossary On
Versions: 1 2 3 4 5 6 7 8 9 10 11 12 13 14 15 16 17 18 19 20 21 22 23 24 25 26 27 28 29 30 31 32 33 34 35 36 37 38 39 40 41 42 43 44 45 46 47 48 49 50
000
ASUS43 KBIS 180610
RWRND

NORTH DAKOTA REGIONAL WEATHER ROUNDUP
NATIONAL WEATHER SERVICE BISMARCK ND
100 AM CDT WED OCT 18 2017

NOTE: "FAIR" INDICATES FEW OR NO CLOUDS BELOW 12,000 FEET WITH NO
SIGNIFICANT WEATHER AND/OR OBSTRUCTIONS TO VISIBILITY.


NDZ001>003-009>011-017-180700-
NORTHWEST NORTH DAKOTA

CITY           SKY/WX    TMP DP  RH WIND       PRES   REMARKS
WILLISTON      PTCLDY    63  25  23 SW14G23   29.54R
6HR MIN TEMP:  58; 6HR MAX TEMP:  68;

MINOT          CLOUDY    64  26  23 S12G20    29.48S
MINOT AFB      CLOUDY    62  27  26 SW15      29.45S
$$

NDZ018>021-031>035-040>046-180700-
SOUTHWEST NORTH DAKOTA

CITY           SKY/WX    TMP DP  RH WIND       PRES   REMARKS
BISMARCK       MOCLDY    60  26  27 S7        29.61F
6HR MIN TEMP:  55; 6HR MAX TEMP:  71;

DICKINSON      MOCLDY    58  25  28 S15       29.60F
GARRISON         N/A     60  30  32 SW12      29.54F
6HR MIN TEMP:  57; 6HR MAX TEMP:  62;

HETTINGER ARPT CLOUDY    59  25  27 SW9       29.68S
$$

NDZ004>008-012>016-024-026-027-054-180700-
NORTHEAST NORTH DAKOTA

CITY           SKY/WX    TMP DP  RH WIND       PRES   REMARKS
GRAND FORKS    CLOUDY    51  37  58 S10       29.56F
GRND FRKS AFB  CLOUDY    62  33  34 SW13      29.56F
DEVILS LAKE    CLOUDY    58  38  47 SW15      29.54F
$$

NDZ022-023-025-028>030-036>039-047>053-180700-
SOUTHEAST NORTH DAKOTA

CITY           SKY/WX    TMP DP  RH WIND       PRES   REMARKS
FARGO          CLOUDY    56  42  59 S13       29.65F
6HR MIN TEMP:  55; 6HR MAX TEMP:  67;

JAMESTOWN      CLOUDY    58  36  43 S9        29.61F
$$




USA.gov is the U.S. government's official web portal to all federal, state and local government web resources and services.